Previsão horária em Al'oshyns'ke

Hoje, 26 Janeiro, Terça-feira

Tempo Temperatura Precipitação Vento Pressão Humidade
00:00 +2°C° 0.5 mm 8 m/s 734 mmHg 90%
01:00 +2°C° 0.5 mm 9 m/s 733 mmHg 90%
02:00 +1°C° 0.5 mm 9 m/s 732 mmHg 90%
03:00 +1°C° 0.5 mm 9 m/s 732 mmHg 90%
04:00 +1°C° 0.5 mm 9 m/s 731 mmHg 90%
05:00 +1°C° 0.5 mm 9 m/s 731 mmHg 90%
06:00 0°C° 0.1 mm 9 m/s 730 mmHg 91%
07:00 0°C° 0.1 mm 9 m/s 730 mmHg 92%
08:00 0°C° 0.1 mm 9 m/s 730 mmHg 93%
09:00 -1°C° 0.4 mm 9 m/s 731 mmHg 92%
10:00 -1°C° 0.4 mm 9 m/s 731 mmHg 91%
11:00 -3°C° 0.4 mm 9 m/s 732 mmHg 90%
12:00 -3°C° 0.1 mm 10 m/s 733 mmHg 89%
13:00 -3°C° 0.1 mm 10 m/s 733 mmHg 88%
14:00 -3°C° 0.1 mm 10 m/s 734 mmHg 87%
15:00 -3°C° 0.1 mm 10 m/s 734 mmHg 86%
16:00 -3°C° 0.1 mm 10 m/s 735 mmHg 85%
17:00 -3°C° 0.1 mm 9 m/s 735 mmHg 84%
18:00 -3°C° 0 mm 9 m/s 736 mmHg 82%
19:00 -4°C° 0 mm 9 m/s 736 mmHg 81%
20:00 -4°C° 0 mm 9 m/s 736 mmHg 79%
21:00 -4°C° 0 mm 9 m/s 737 mmHg 79%
22:00 -4°C° 0 mm 9 m/s 737 mmHg 79%
23:00 -4°C° 0 mm 8 m/s 738 mmHg 79%

Amanhã, 27 Janeiro, Quarta-feira

Tempo Temperatura Precipitação Vento Pressão Humidade
00:00 -5°C° 0 mm 8 m/s 738 mmHg 79%
01:00 -4°C° 0 mm 7 m/s 739 mmHg 80%
02:00 -4°C° 0 mm 7 m/s 739 mmHg 80%
03:00 -4°C° 0 mm 6 m/s 740 mmHg 81%
04:00 -4°C° 0 mm 6 m/s 740 mmHg 81%
05:00 -4°C° 0 mm 5 m/s 740 mmHg 81%
06:00 -4°C° 0 mm 5 m/s 741 mmHg 81%
07:00 -3°C° 0 mm 4 m/s 741 mmHg 82%
08:00 -3°C° 0 mm 4 m/s 741 mmHg 83%
09:00 -3°C° 0 mm 4 m/s 742 mmHg 81%
10:00 -2°C° 0 mm 3 m/s 742 mmHg 79%
11:00 -1°C° 0 mm 3 m/s 743 mmHg 77%
12:00 -1°C° 0 mm 3 m/s 742 mmHg 76%
13:00 -1°C° 0 mm 2 m/s 742 mmHg 76%
14:00 -1°C° 0 mm 2 m/s 742 mmHg 75%
15:00 +1°C° 0 mm 1 m/s 742 mmHg 78%
16:00 0°C° 0 mm 1 m/s 742 mmHg 81%
17:00 0°C° 0 mm 1 m/s 742 mmHg 84%
18:00 0°C° 0 mm 1 m/s 742 mmHg 85%
19:00 0°C° 0 mm 1 m/s 742 mmHg 85%
20:00 -2°C° 0 mm 2 m/s 742 mmHg 85%
21:00 -2°C° 0 mm 2 m/s 742 mmHg 85%
22:00 -2°C° 0 mm 3 m/s 741 mmHg 85%
23:00 -2°C° 0 mm 3 m/s 741 mmHg 84%

Depois de amanhã, 28 Janeiro, Quinta-feira

Tempo Temperatura Precipitação Vento Pressão Humidade
00:00 -3°C° 0.3 mm 4 m/s 741 mmHg 88%
01:00 -3°C° 0.3 mm 4 m/s 740 mmHg 91%
02:00 -4°C° 0.3 mm 5 m/s 740 mmHg 94%
03:00 -4°C° 0.9 mm 5 m/s 739 mmHg 95%
04:00 -4°C° 0.9 mm 5 m/s 739 mmHg 95%
05:00 -4°C° 0.9 mm 5 m/s 738 mmHg 96%
06:00 -4°C° 0.4 mm 5 m/s 738 mmHg 96%
07:00 -3°C° 0.4 mm 4 m/s 738 mmHg 96%
08:00 -3°C° 0.4 mm 4 m/s 738 mmHg 96%
09:00 -1°C° 0.1 mm 3 m/s 737 mmHg 97%
10:00 -1°C° 0.1 mm 3 m/s 737 mmHg 97%
11:00 -1°C° 0.1 mm 2 m/s 737 mmHg 98%
12:00 +1°C° 0.3 mm 2 m/s 737 mmHg 98%
13:00 +1°C° 0.3 mm 2 m/s 736 mmHg 98%
14:00 +1°C° 0.3 mm 2 m/s 736 mmHg 99%
15:00 +1°C° 0.2 mm 2 m/s 736 mmHg 98%
16:00 0°C° 0.2 mm 3 m/s 735 mmHg 98%
17:00 0°C° 0.2 mm 3 m/s 735 mmHg 98%
18:00 0°C° 0.1 mm 4 m/s 735 mmHg 98%
19:00 0°C° 0.1 mm 4 m/s 735 mmHg 97%
20:00 0°C° 0.1 mm 5 m/s 735 mmHg 97%
21:00 0°C° 0 mm 5 m/s 735 mmHg 95%
22:00 -1°C° 0 mm 5 m/s 735 mmHg 92%
23:00 -1°C° 0 mm 5 m/s 735 mmHg 90%

29 Janeiro, Sexta-feira

Tempo Temperatura Precipitação Vento Pressão Humidade
00:00 -2°C° 0 mm 5 m/s 735 mmHg 89%
01:00 -4°C° 0 mm 5 m/s 735 mmHg 88%
02:00 -4°C° 0 mm 5 m/s 734 mmHg 88%
03:00 -5°C° 0 mm 5 m/s 734 mmHg 90%
04:00 -5°C° 0 mm 5 m/s 734 mmHg 92%
05:00 -5°C° 0 mm 5 m/s 733 mmHg 95%
06:00 -4°C° 0.2 mm 4 m/s 733 mmHg 95%
07:00 -3°C° 0.2 mm 4 m/s 733 mmHg 95%
08:00 -3°C° 0.2 mm 4 m/s 732 mmHg 96%
09:00 -4°C° 0.3 mm 4 m/s 732 mmHg 94%
10:00 -4°C° 0.3 mm 4 m/s 732 mmHg 93%
11:00 -4°C° 0.3 mm 4 m/s 732 mmHg 92%
12:00 -4°C° 0.1 mm 4 m/s 732 mmHg 89%
13:00 -6°C° 0.1 mm 5 m/s 731 mmHg 86%
14:00 -6°C° 0.1 mm 5 m/s 731 mmHg 83%
15:00 -5°C° 0 mm 4 m/s 731 mmHg 84%
16:00 -5°C° 0 mm 4 m/s 731 mmHg 85%
17:00 -5°C° 0 mm 4 m/s 732 mmHg 85%
18:00 -7°C° 0 mm 4 m/s 732 mmHg 87%
19:00 -7°C° 0 mm 4 m/s 731 mmHg 89%
20:00 -7°C° 0 mm 4 m/s 731 mmHg 90%
21:00 -7°C° 0 mm 4 m/s 731 mmHg 91%
22:00 -7°C° 0 mm 4 m/s 731 mmHg 92%
23:00 -7°C° 0 mm 4 m/s 731 mmHg 92%

30 Janeiro, Sábado

Tempo Temperatura Precipitação Vento Pressão Humidade
00:00 -7°C° 0.2 mm 4 m/s 731 mmHg 92%
01:00 -7°C° 0.2 mm 5 m/s 731 mmHg 92%
02:00 -6°C° 0.2 mm 5 m/s 731 mmHg 92%
03:00 -7°C° 0.1 mm 5 m/s 731 mmHg 92%
04:00 -7°C° 0.1 mm 5 m/s 731 mmHg 91%
05:00 -7°C° 0.1 mm 5 m/s 731 mmHg 90%
06:00 -7°C° 0.1 mm 5 m/s 732 mmHg 90%
07:00 -7°C° 0.1 mm 5 m/s 732 mmHg 91%
08:00 -7°C° 0.1 mm 5 m/s 732 mmHg 91%
09:00 -7°C° 0 mm 5 m/s 732 mmHg 89%
10:00 -7°C° 0 mm 5 m/s 733 mmHg 87%
11:00 -7°C° 0 mm 5 m/s 733 mmHg 85%
12:00 -6°C° 0 mm 5 m/s 733 mmHg 85%
13:00 -6°C° 0 mm 5 m/s 733 mmHg 85%
14:00 -6°C° 0 mm 5 m/s 733 mmHg 85%
15:00 -6°C° 0.1 mm 5 m/s 733 mmHg 87%
16:00 -6°C° 0.1 mm 5 m/s 733 mmHg 88%
17:00 -6°C° 0.1 mm 5 m/s 734 mmHg 90%
18:00 -5°C° 0 mm 4 m/s 734 mmHg 89%
19:00 -7°C° 0 mm 4 m/s 734 mmHg 89%
20:00 -7°C° 0 mm 4 m/s 734 mmHg 88%
21:00 -6°C° 0 mm 3 m/s 735 mmHg 89%
22:00 -7°C° 0 mm 3 m/s 735 mmHg 89%
23:00 -7°C° 0 mm 3 m/s 735 mmHg 90%

31 Janeiro, Domingo

Tempo Temperatura Precipitação Vento Pressão Humidade
00:00 -7°C° 0 mm 3 m/s 736 mmHg 90%
01:00 -8°C° 0 mm 3 m/s 736 mmHg 90%
02:00 -8°C° 0 mm 3 m/s 736 mmHg 90%
03:00 -8°C° 0 mm 3 m/s 736 mmHg 91%
04:00 -9°C° 0 mm 4 m/s 736 mmHg 91%
05:00 -10°C° 0 mm 4 m/s 736 mmHg 91%
06:00 -10°C° 0 mm 4 m/s 737 mmHg 91%
07:00 -10°C° 0 mm 4 m/s 737 mmHg 91%
08:00 -10°C° 0 mm 4 m/s 737 mmHg 91%
09:00 -10°C° 0 mm 5 m/s 737 mmHg 89%
10:00 -8°C° 0 mm 5 m/s 738 mmHg 86%
11:00 -9°C° 0 mm 6 m/s 738 mmHg 84%
12:00 -8°C° 0 mm 6 m/s 738 mmHg 83%
13:00 -8°C° 0 mm 6 m/s 738 mmHg 82%
14:00 -8°C° 0 mm 6 m/s 738 mmHg 81%
15:00 -8°C° 0 mm 6 m/s 738 mmHg 82%
16:00 -7°C° 0 mm 5 m/s 739 mmHg 83%
17:00 -7°C° 0 mm 5 m/s 739 mmHg 84%
18:00 -7°C° 0 mm 5 m/s 739 mmHg 85%
19:00 -8°C° 0 mm 5 m/s 739 mmHg 86%
20:00 -8°C° 0 mm 5 m/s 739 mmHg 88%
21:00 -8°C° 0 mm 5 m/s 739 mmHg 88%
22:00 -9°C° 0 mm 6 m/s 739 mmHg 89%
23:00 -9°C° 0 mm 6 m/s 739 mmHg 90%
Mostrar mais

Necessitamos do seu Consentimento

A Meteoprog e os seus Fornecedores de Serviços podem armazenar e aceder a dados pessoais como cookies, identificadores do dispositivo ou outras tecnologias semelhantes existentes no seu dispositivo e processar estes dados para personalizar conteúdos e anúncios, assim como funcionalidades nas redes sociais e análise de tráfego.

  • Armazenar e/ou aceder a informações no seu dispositivo

    Os cookies, identificadores do dispositivo ou outras informações podem ser armazenados ou acedidos no seu dispositivo, para os fins acima indicados.

  • Anúncios e conteúdos personalizados, medição de anúncios e conteúdos, dados sobre o público-alvo e desenvolvimento de produtos

    Os anúncios e os conteúdos podem ser personalizados com base num perfil. Podem ser adicionados dados adicionais para uma maior personalização dos anúncios e dos conteúdos. A eficácia dos anúncios e dos conteúdos pode ser medida. Podem ser obtidas informações sobre o público que visualizou os anúncios e os conteúdos. Estes dados podem ser usados para desenvolver ou melhorar sistemas, softwares ou a experiência do utilizador.

Ao clicar em "Eu concordo”, permitirá o uso de cookies, identificadores do dispositivo e web beacons mencionados ou outras tecnologias semelhantes. As configurações do navegador do seu dispositivo podem ser alteradas.

Para certos fins, podem ser invocados interesses legítimos ao invés de consentimento. Pode ler mais informação sobre este assunto na nossa Política de Privacidade e Cookies.